When you browse on this site, cookies collect data to enhance your experience and personalize the content and advertising you see.
Visit our Privacy Policy to learn more. By continuing to use the site, you agree to this use of cookies and data.
  • In Portugal
  • List of Countries
  • For 7 days
  • Water Temperature
  • Satellite Maps
  • Weather Map
  • Weather Widgets
  • user-avatar
    Login

    Hourly Weather Babeevo

    Today, 26 June, Wednesday

    Time Temperature Precipitation Wind Pressure Humidity
    00:00 +13°C° 0 mm 2 mps 757 mmHg 85%
    01:00 +12°C° 0 mm 2 mps 757 mmHg 87%
    02:00 +12°C° 0 mm 2 mps 758 mmHg 90%
    03:00 +10°C° 0 mm 2 mps 758 mmHg 92%
    04:00 +12°C° 0 mm 2 mps 758 mmHg 89%
    05:00 +13°C° 0 mm 2 mps 758 mmHg 85%
    06:00 +14°C° 0 mm 2 mps 757 mmHg 81%
    07:00 +15°C° 0 mm 2 mps 757 mmHg 72%
    08:00 +17°C° 0 mm 3 mps 757 mmHg 63%
    09:00 +18°C° 0 mm 3 mps 757 mmHg 54%
    10:00 +19°C° 0 mm 3 mps 757 mmHg 51%
    11:00 +20°C° 0 mm 3 mps 757 mmHg 47%
    12:00 +21°C° 0 mm 3 mps 756 mmHg 44%
    13:00 +21°C° 0 mm 3 mps 756 mmHg 46%
    14:00 +21°C° 0 mm 2 mps 756 mmHg 47%
    15:00 +21°C° 0 mm 2 mps 755 mmHg 49%
    16:00 +20°C° 0 mm 2 mps 754 mmHg 56%
    17:00 +19°C° 0 mm 2 mps 754 mmHg 63%
    18:00 +18°C° 0 mm 2 mps 753 mmHg 69%
    19:00 +18°C° 0.4 mm 1 mps 753 mmHg 76%
    20:00 +16°C° 0.4 mm 1 mps 752 mmHg 84%
    21:00 +15°C° 0.4 mm 1 mps 752 mmHg 91%
    22:00 +14°C° 2.9 mm 1 mps 751 mmHg 93%
    23:00 +14°C° 2.9 mm 1 mps 750 mmHg 96%

    Tomorrow, 27 June, Thursday

    Time Temperature Precipitation Wind Pressure Humidity
    00:00 +14°C° 2.9 mm 2 mps 750 mmHg 98%
    01:00 +14°C° 1.3 mm 2 mps 749 mmHg 98%
    02:00 +14°C° 1.3 mm 2 mps 749 mmHg 97%
    03:00 +14°C° 1.3 mm 2 mps 749 mmHg 97%
    04:00 +14°C° 0 mm 2 mps 748 mmHg 97%
    05:00 +14°C° 0 mm 2 mps 748 mmHg 96%
    06:00 +14°C° 0 mm 2 mps 748 mmHg 96%
    07:00 +15°C° 0 mm 2 mps 747 mmHg 91%
    08:00 +16°C° 0 mm 1 mps 747 mmHg 86%
    09:00 +18°C° 0 mm 1 mps 747 mmHg 81%
    10:00 +19°C° 0 mm 1 mps 747 mmHg 74%
    11:00 +21°C° 0 mm 1 mps 746 mmHg 66%
    12:00 +23°C° 0 mm 1 mps 746 mmHg 59%
    13:00 +22°C° 0.1 mm 1 mps 746 mmHg 59%
    14:00 +21°C° 0.1 mm 2 mps 745 mmHg 59%
    15:00 +21°C° 0.1 mm 2 mps 745 mmHg 60%
    16:00 +21°C° 0 mm 3 mps 744 mmHg 64%
    17:00 +20°C° 0 mm 3 mps 744 mmHg 67%
    18:00 +19°C° 0 mm 3 mps 743 mmHg 71%
    19:00 +19°C° 0 mm 3 mps 742 mmHg 73%
    20:00 +18°C° 0 mm 4 mps 742 mmHg 75%
    21:00 +17°C° 0 mm 4 mps 741 mmHg 76%
    22:00 +15°C° 0.7 mm 5 mps 740 mmHg 82%
    23:00 +15°C° 0.7 mm 5 mps 739 mmHg 88%

    Day after tomorrow, 28 June, Friday

    Time Temperature Precipitation Wind Pressure Humidity
    00:00 +14°C° 0.7 mm 6 mps 739 mmHg 93%
    01:00 +14°C° 2.5 mm 7 mps 738 mmHg 94%
    02:00 +14°C° 2.5 mm 7 mps 737 mmHg 95%
    03:00 +12°C° 2.5 mm 8 mps 736 mmHg 96%
    04:00 +14°C° 3.8 mm 7 mps 735 mmHg 97%
    05:00 +14°C° 3.8 mm 7 mps 734 mmHg 97%
    06:00 +14°C° 3.8 mm 6 mps 734 mmHg 98%
    07:00 +15°C° 2.2 mm 5 mps 733 mmHg 97%
    08:00 +17°C° 2.2 mm 5 mps 733 mmHg 97%
    09:00 +19°C° 2.2 mm 4 mps 733 mmHg 97%
    10:00 +20°C° 1.1 mm 5 mps 733 mmHg 94%
    11:00 +21°C° 1.1 mm 5 mps 732 mmHg 91%
    12:00 +22°C° 1.1 mm 5 mps 732 mmHg 88%
    13:00 +22°C° 1.3 mm 5 mps 732 mmHg 88%
    14:00 +22°C° 1.3 mm 5 mps 732 mmHg 87%
    15:00 +22°C° 1.3 mm 5 mps 732 mmHg 86%
    16:00 +21°C° 0.7 mm 5 mps 732 mmHg 87%
    17:00 +20°C° 0.7 mm 5 mps 732 mmHg 87%
    18:00 +19°C° 0.7 mm 4 mps 732 mmHg 88%
    19:00 +18°C° 0 mm 4 mps 733 mmHg 90%
    20:00 +17°C° 0 mm 4 mps 733 mmHg 92%
    21:00 +16°C° 0 mm 3 mps 733 mmHg 94%
    22:00 +14°C° 0 mm 3 mps 733 mmHg 95%
    23:00 +14°C° 0 mm 3 mps 733 mmHg 95%

    29 June, Saturday

    Time Temperature Precipitation Wind Pressure Humidity
    00:00 +13°C° 0 mm 3 mps 733 mmHg 96%
    01:00 +13°C° 0 mm 3 mps 733 mmHg 96%
    02:00 +12°C° 0 mm 4 mps 733 mmHg 96%
    03:00 +12°C° 0 mm 4 mps 733 mmHg 96%
    04:00 +12°C° 0 mm 5 mps 733 mmHg 94%
    05:00 +11°C° 0 mm 6 mps 733 mmHg 92%
    06:00 +11°C° 0 mm 6 mps 733 mmHg 90%
    07:00 +11°C° 0 mm 7 mps 734 mmHg 87%
    08:00 +12°C° 0 mm 7 mps 734 mmHg 85%
    09:00 +12°C° 0 mm 7 mps 734 mmHg 82%
    10:00 +14°C° 0 mm 6 mps 735 mmHg 80%
    11:00 +14°C° 0 mm 6 mps 736 mmHg 78%
    12:00 +14°C° 0 mm 6 mps 736 mmHg 77%
    13:00 +15°C° 0.2 mm 6 mps 737 mmHg 78%
    14:00 +15°C° 0.2 mm 6 mps 737 mmHg 80%
    15:00 +15°C° 0.2 mm 6 mps 738 mmHg 81%
    16:00 +15°C° 0 mm 6 mps 738 mmHg 81%
    17:00 +14°C° 0 mm 5 mps 739 mmHg 80%
    18:00 +14°C° 0 mm 5 mps 739 mmHg 80%
    19:00 +13°C° 0 mm 4 mps 739 mmHg 83%
    20:00 +12°C° 0 mm 3 mps 740 mmHg 86%
    21:00 +11°C° 0 mm 3 mps 741 mmHg 89%
    22:00 +10°C° 0 mm 2 mps 741 mmHg 92%
    23:00 +10°C° 0 mm 2 mps 741 mmHg 94%

    30 June, Sunday

    Time Temperature Precipitation Wind Pressure Humidity
    00:00 +9°C° 0 mm 2 mps 741 mmHg 97%
    01:00 +8°C° 0 mm 2 mps 742 mmHg 97%
    02:00 +8°C° 0 mm 2 mps 742 mmHg 98%
    03:00 +8°C° 0 mm 2 mps 742 mmHg 98%
    04:00 +8°C° 0 mm 2 mps 742 mmHg 96%
    05:00 +9°C° 0 mm 2 mps 743 mmHg 94%
    06:00 +9°C° 0 mm 2 mps 743 mmHg 92%
    07:00 +12°C° 0 mm 2 mps 743 mmHg 87%
    08:00 +13°C° 0 mm 2 mps 744 mmHg 81%
    09:00 +14°C° 0 mm 2 mps 744 mmHg 75%
    10:00 +14°C° 0 mm 2 mps 744 mmHg 74%
    11:00 +15°C° 0 mm 2 mps 745 mmHg 74%
    12:00 +15°C° 0 mm 2 mps 745 mmHg 74%
    13:00 +15°C° 0 mm 2 mps 745 mmHg 72%
    14:00 +16°C° 0 mm 2 mps 745 mmHg 69%
    15:00 +17°C° 0 mm 2 mps 746 mmHg 67%
    16:00 +16°C° 0.1 mm 2 mps 746 mmHg 71%
    17:00 +16°C° 0.1 mm 1 mps 746 mmHg 76%
    18:00 +15°C° 0.1 mm 1 mps 747 mmHg 80%
    19:00 +14°C° 0 mm 1 mps 747 mmHg 83%
    20:00 +13°C° 0 mm 1 mps 747 mmHg 86%
    21:00 +12°C° 0 mm 1 mps 748 mmHg 90%
    22:00 +11°C° 0 mm 1 mps 748 mmHg 91%
    23:00 +11°C° 0 mm 1 mps 748 mmHg 92%

    1 July, Monday

    Time Temperature Precipitation Wind Pressure Humidity
    00:00 +10°C° 0 mm 1 mps 748 mmHg 94%
    01:00 +10°C° 0 mm 1 mps 749 mmHg 94%
    02:00 +8°C° 0 mm 0 mps 749 mmHg 94%
    03:00 +8°C° 0 mm 0 mps 749 mmHg 95%
    04:00 +9°C° 0 mm 0 mps 749 mmHg 93%
    05:00 +10°C° 0 mm 0 mps 749 mmHg 92%
    06:00 +12°C° 0 mm 1 mps 750 mmHg 90%
    07:00 +14°C° 0 mm 1 mps 749 mmHg 82%
    08:00 +16°C° 0 mm 1 mps 749 mmHg 74%
    09:00 +19°C° 0 mm 1 mps 749 mmHg 66%
    10:00 +20°C° 0 mm 1 mps 749 mmHg 62%
    11:00 +21°C° 0 mm 1 mps 749 mmHg 57%
    12:00 +22°C° 0 mm 1 mps 749 mmHg 52%
    13:00 +22°C° 0 mm 1 mps 749 mmHg 52%
    14:00 +23°C° 0 mm 2 mps 748 mmHg 52%
    15:00 +23°C° 0 mm 2 mps 748 mmHg 51%
    16:00 +22°C° 0 mm 1 mps 748 mmHg 56%
    17:00 +22°C° 0 mm 1 mps 748 mmHg 60%
    18:00 +22°C° 0 mm 1 mps 747 mmHg 64%
    19:00 +20°C° 0 mm 1 mps 747 mmHg 68%
    20:00 +19°C° 0 mm 1 mps 747 mmHg 72%
    21:00 +17°C° 0 mm 2 mps 747 mmHg 76%
    22:00 +16°C° 0.2 mm 2 mps 747 mmHg 80%
    23:00 +15°C° 0.2 mm 1 mps 746 mmHg 84%
    Show more